TimePDT,TemperatureF,Dew PointF,Humidity,Sea Level PressureIn,VisibilityMPH,Wind Direction,Wind SpeedMPH,Gust SpeedMPH,PrecipitationIn,Events,Conditions,WindDirDegrees,DateUTC
12:53 AM,46.0,41.0,83,29.88,10.0,WNW,5.8,-,N/A,,Overcast,300,2013-10-01 07:53:00
1:53 AM,45.0,39.9,82,29.88,10.0,South,5.8,-,N/A,,Scattered Clouds,170,2013-10-01 08:53:00
2:53 AM,46.9,42.1,83,29.89,10.0,WSW,5.8,-,0.00,Rain,Light Rain,240,2013-10-01 09:53:00
3:53 AM,45.0,43.0,93,29.89,10.0,Calm,Calm,-,0.04,Rain,Light Rain,0,2013-10-01 10:53:00
4:53 AM,45.0,43.0,93,29.89,10.0,SSW,4.6,-,0.00,,Overcast,200,2013-10-01 11:53:00
5:53 AM,46.9,42.1,83,29.88,10.0,Calm,Calm,-,0.01,Rain,Light Rain,0,2013-10-01 12:53:00
6:53 AM,46.0,41.0,83,29.90,10.0,SE,3.5,-,0.00,,Mostly Cloudy,130,2013-10-01 13:53:00
7:53 AM,48.0,39.9,74,29.92,10.0,West,5.8,-,N/A,,Overcast,260,2013-10-01 14:53:00
8:53 AM,48.9,42.1,77,29.94,10.0,West,11.5,-,N/A,,Mostly Cloudy,270,2013-10-01 15:53:00
9:53 AM,51.1,44.1,77,29.94,10.0,WSW,6.9,-,0.00,,Mostly Cloudy,240,2013-10-01 16:53:00
10:53 AM,55.0,43.0,64,29.95,10.0,SE,4.6,-,N/A,,Scattered Clouds,130,2013-10-01 17:53:00
11:53 AM,55.9,44.1,64,29.96,10.0,ENE,4.6,-,N/A,,Mostly Cloudy,70,2013-10-01 18:53:00
12:53 PM,55.9,44.1,64,29.98,10.0,Variable,5.8,-,N/A,,Partly Cloudy,0,2013-10-01 19:53:00
1:53 PM,54.0,43.0,66,29.98,10.0,East,9.2,-,N/A,,Overcast,80,2013-10-01 20:53:00
2:53 PM,54.0,42.1,64,29.99,10.0,Variable,3.5,-,N/A,,Overcast,0,2013-10-01 21:53:00
3:53 PM,53.1,46.9,80,30.01,10.0,Calm,Calm,-,0.01,Rain,Light Rain,0,2013-10-01 22:53:00
4:53 PM,54.0,48.0,80,30.01,10.0,Calm,Calm,-,0.00,,Overcast,0,2013-10-01 23:53:00
5:53 PM,52.0,46.9,83,30.02,10.0,NNW,3.5,-,0.00,,Overcast,340,2013-10-02 00:53:00
6:53 PM,51.1,45.0,80,30.02,10.0,WSW,8.1,-,0.02,,Overcast,240,2013-10-02 01:53:00
7:53 PM,48.9,45.0,86,30.05,10.0,West,8.1,-,0.03,Rain,Light Rain,280,2013-10-02 02:53:00
8:53 PM,50.0,45.0,83,30.06,8.0,Variable,3.5,-,0.01,Rain,Light Rain,0,2013-10-02 03:53:00
9:53 PM,50.0,45.0,83,30.09,10.0,SW,9.2,-,0.06,Rain,Light Rain,230,2013-10-02 04:53:00
10:53 PM,48.9,45.0,86,30.09,10.0,WSW,8.1,-,0.00,,Overcast,250,2013-10-02 05:53:00
11:53 PM,50.0,45.0,83,30.09,10.0,West,6.9,-,0.00,Rain,Light Rain,280,2013-10-02 06:53:00